Date String (YYYY-MM-DD hh:mm:ss) UTC,Instrument flags,Ambient pressure (hPa),Sample flow (lpm),Bypass flow (lpm),Sample temperature (°C),Ambient temperature (°C),ASC tube jacket temperature (°C),LED temperature (°C),Box temperature (°C),Sample RH (%),Span deviation,Mass concentration (μg/m³),Mass concentration (μg/m³),Mass concentration (μg/m³)
DateTimeUTC,F1_M11,P_M11,Q1_M11,Q2_M11,T1_M11,T2_M11,T3_M11,T4_M11,T5_M11,U1_M11,ZSPAN_M11,X0_M11,X2_M11,X1_M11
2022-08-10 18:00:00,,0834.3,4.99,0.00,29.2,27.6,00.0,38.0,31.1,33.4,0000.0,0019.61,0007.01,0005.50
2022-08-10 18:01:00,,0834.3,5.00,0.00,29.3,27.8,00.0,38.0,31.1,32.7,0000.0,0020.35,0006.97,0005.51
2022-08-10 18:02:00,,0834.3,5.00,0.00,29.3,28.0,00.0,38.0,31.2,33.3,0000.0,0020.63,0006.97,0005.51
2022-08-10 18:03:00,,0834.3,5.00,0.00,29.3,28.0,00.0,38.0,31.2,32.1,0000.0,0021.42,0006.96,0005.51
2022-08-10 18:04:00,,0834.2,4.99,0.00,29.3,27.5,00.0,38.0,31.1,31.6,0000.0,0020.57,0006.94,0005.51
2022-08-10 18:05:00,,0834.3,5.01,0.00,29.3,27.1,00.0,37.9,31.0,32.3,0000.0,0020.83,0006.92,0005.49
2022-08-10 18:06:00,,0834.3,4.99,0.00,29.2,27.1,00.0,37.9,31.0,30.8,0000.0,0020.56,0006.85,0005.46
2022-08-10 18:07:00,,0834.3,5.00,0.00,29.2,27.2,00.0,37.9,30.9,30.6,0000.0,0020.68,0006.73,0005.40
2022-08-10 18:08:00,,0834.3,4.99,0.00,29.2,27.4,00.0,37.9,31.0,30.6,0000.0,0020.75,0006.62,0005.36
2022-08-10 18:09:00,,0834.3,5.02,0.00,29.2,27.6,00.0,37.9,31.1,31.3,0000.0,0019.98,0006.57,0005.33
2022-08-10 18:10:00,,0834.2,5.00,0.00,29.3,27.8,00.0,38.0,31.1,31.2,0000.0,0020.46,0006.61,0005.32
2022-08-10 18:11:00,,0834.2,4.99,0.00,29.3,27.8,00.0,38.0,31.1,30.8,0000.0,0021.19,0006.66,0005.33
2022-08-10 18:12:00,,0834.3,4.99,0.00,29.3,27.3,00.0,37.9,31.0,31.1,0000.0,0020.85,0006.69,0005.33
2022-08-10 18:13:00,,0834.2,5.01,0.00,29.2,27.0,00.0,37.9,30.9,31.0,0000.0,0019.79,0006.75,0005.34
2022-08-10 18:14:00,,0834.1,5.01,0.00,29.2,26.9,00.0,37.9,30.9,30.7,0000.0,0018.93,0006.77,0005.35
2022-08-10 18:15:00,,0834.1,4.99,0.00,29.1,27.1,00.0,37.9,30.8,31.1,0000.0,0017.95,0006.73,0005.35
2022-08-10 18:16:00,,0834.1,5.00,0.00,29.1,27.3,00.0,37.9,30.9,31.1,0000.0,0017.80,0006.72,0005.38
2022-08-10 18:17:00,,0834.1,5.00,0.00,29.1,27.5,00.0,37.9,31.0,31.3,0000.0,0017.99,0006.72,0005.40
2022-08-10 18:18:00,,0834.1,5.00,0.00,29.1,27.7,00.0,37.9,31.0,31.1,0000.0,0018.30,0006.82,0005.46
2022-08-10 18:19:00,,0834.1,5.00,0.00,29.2,27.9,00.0,37.9,31.1,31.2,0000.0,0017.92,0006.91,0005.51
2022-08-10 18:20:00,,0834.1,5.00,0.00,29.2,27.8,00.0,37.9,31.2,31.5,0000.0,0017.84,0006.96,0005.54
2022-08-10 18:21:00,,0834.1,5.00,0.00,29.2,27.3,00.0,37.9,31.0,30.8,0000.0,0017.76,0007.04,0005.55
2022-08-10 18:22:00,,0834.1,5.01,0.00,29.2,27.0,00.0,37.9,31.0,30.0,0000.5,0016.74,0006.99,0005.55
2022-08-10 18:23:00,,0834.1,4.99,0.00,29.1,27.0,00.0,37.9,30.9,29.2,0000.0,0015.41,0006.91,0005.50
2022-08-10 18:24:00,,0834.1,5.01,0.00,29.1,27.1,00.0,37.8,30.8,29.4,0000.0,0014.45,0006.81,0005.46
2022-08-10 18:25:00,,0834.0,4.99,0.00,29.1,27.3,00.0,37.8,30.9,29.6,0000.0,0014.94,0006.69,0005.41
2022-08-10 18:26:00,,0834.1,5.00,0.00,29.1,27.5,00.0,37.8,31.0,29.5,0000.0,0016.44,0006.64,0005.36
2022-08-10 18:27:00,,0834.0,5.00,0.00,29.1,27.7,00.0,37.9,31.0,29.3,0000.0,0017.37,0006.65,0005.32
2022-08-10 18:28:00,,0834.0,4.99,0.00,29.2,27.9,00.0,37.9,31.1,29.7,0000.0,0017.23,0006.66,0005.28
2022-08-10 18:29:00,,0834.0,5.00,0.00,29.2,27.9,00.0,37.9,31.1,29.5,0000.0,0016.97,0006.62,0005.25
2022-08-10 18:30:00,,0834.0,4.99,0.00,29.2,27.4,00.0,37.9,31.0,29.2,0000.0,0016.79,0006.61,0005.22
2022-08-10 18:31:00,,0834.0,5.00,0.00,29.1,27.0,00.0,37.8,30.9,27.5,0000.0,0016.72,0006.59,0005.17
2022-08-10 18:32:00,,0834.0,5.00,0.00,29.1,27.0,00.0,37.8,30.9,26.2,0000.0,0016.59,0006.47,0005.11
2022-08-10 18:33:00,,0834.0,4.99,0.00,29.1,27.1,00.0,37.8,30.8,26.7,0000.0,0016.61,0006.41,0005.04
2022-08-10 18:34:00,,0834.0,5.01,0.00,29.1,27.3,00.0,37.8,30.9,28.0,0000.0,0016.45,0006.38,0005.02
2022-08-10 18:35:00,,0834.0,5.00,0.00,29.1,27.5,00.0,37.8,30.9,27.7,0000.0,0016.45,0006.38,0005.02
2022-08-10 18:36:00,,0834.0,4.99,0.00,29.1,27.7,00.0,37.8,31.0,28.6,0000.0,0016.02,0006.35,0004.99
2022-08-10 18:37:00,,0834.0,5.00,0.00,29.2,27.9,00.0,37.8,31.1,28.6,0000.0,0014.90,0006.34,0004.99
2022-08-10 18:38:00,,0834.0,5.01,0.00,29.2,27.9,00.0,37.9,31.1,29.2,0000.0,0014.57,0006.33,0004.97
2022-08-10 18:39:00,,0833.9,5.00,0.00,29.2,27.4,00.0,37.8,31.0,30.0,0000.0,0014.64,0006.32,0004.96
2022-08-10 18:40:00,,0833.9,5.00,0.00,29.1,27.0,00.0,37.8,30.9,30.1,0000.0,0015.49,0006.32,0004.94
2022-08-10 18:41:00,,0834.0,5.01,0.00,29.1,27.0,00.0,37.8,30.9,29.9,0000.0,0015.90,0006.31,0004.93
2022-08-10 18:42:00,,0833.9,5.02,0.00,29.0,27.1,00.0,37.8,30.8,28.9,0000.0,0016.24,0006.25,0004.92
2022-08-10 18:43:00,,0833.9,5.00,0.00,29.0,27.3,00.0,37.8,30.8,28.7,0000.0,0016.58,0006.28,0004.93
2022-08-10 18:44:00,,0833.9,5.00,0.00,29.1,27.5,00.0,37.8,30.9,28.6,0000.0,0017.36,0006.29,0004.96
2022-08-10 18:45:00,,0833.9,5.00,0.00,29.1,27.7,00.0,37.8,31.0,30.0,0000.0,0017.27,0006.34,0004.97
2022-08-10 18:46:00,,0833.9,5.00,0.00,29.1,27.9,00.0,37.8,31.1,30.7,0000.0,0017.51,0006.41,0004.97
2022-08-10 18:47:00,,0833.9,5.01,0.00,29.2,27.9,00.0,37.9,31.2,28.4,0000.0,0017.60,0006.47,0004.97
2022-08-10 18:48:00,,0833.9,5.00,0.00,29.2,27.5,00.0,37.8,31.0,27.4,0000.0,0017.86,0006.50,0004.96
2022-08-10 18:49:00,,0833.9,5.01,0.00,29.1,27.0,00.0,37.8,30.9,26.6,0000.0,0017.41,0006.47,0004.94
2022-08-10 18:50:00,,0833.9,4.99,0.00,29.1,27.0,00.0,37.8,30.9,27.4,0000.0,0017.12,0006.46,0004.91
2022-08-10 18:51:00,,0833.9,5.01,0.00,29.0,27.1,00.0,37.8,30.8,25.8,0000.0,0016.37,0006.37,0004.85
2022-08-10 18:52:00,,0833.9,5.00,0.00,29.0,27.3,00.0,37.8,30.8,25.5,0000.0,0015.95,0006.29,0004.80
2022-08-10 18:53:00,,0833.9,5.00,0.00,29.0,27.5,00.0,37.8,30.9,25.0,0000.0,0015.82,0006.20,0004.74
2022-08-10 18:54:00,,0833.8,5.00,0.00,29.1,27.7,00.0,37.8,31.0,25.0,0000.0,0015.85,0006.10,0004.67
2022-08-10 18:55:00,,0833.9,5.00,0.00,29.1,27.8,00.0,37.8,31.1,25.1,0000.0,0016.22,0006.00,0004.61
2022-08-10 18:56:00,,0833.9,5.00,0.00,29.2,28.0,00.0,37.9,31.2,24.4,0000.0,0016.54,0005.90,0004.53
2022-08-10 18:57:00,,0833.9,5.00,0.00,29.2,27.9,00.0,37.9,31.2,24.4,0000.0,0016.45,0005.75,0004.44
2022-08-10 18:58:00,,0833.9,4.99,0.00,29.2,27.3,00.0,37.8,31.0,24.7,0000.0,0016.35,0005.61,0004.38
2022-08-10 18:59:00,,0833.9,5.01,0.00,29.1,27.0,00.0,37.8,31.0,24.0,0000.0,0016.81,0005.50,0004.32
